| time (UTC) | temp C | wind direction | speed KPH | gust KPH | rain 1hr cm | rain 24hr cm | rain mn cm | humidity % | barometer mb |
| 20260504175059 | 20 | 219 | 6.4 | 14.5 | 0.00 | 0.00 | 0.00 | 42 | 1012.4 |
| 20260504174625 | 20 | 188 | 8.0 | 14.5 | 0.00 | 0.00 | 0.00 | 43 | 1012.5 |
| 20260504174054 | 20 | 180 | 6.4 | 16.1 | 0.00 | 0.00 | 0.00 | 46 | 1012.5 |
| 20260504173523 | 20 | 167 | 6.4 | 12.9 | 0.00 | 0.00 | 0.00 | 44 | 1012.5 |
| 20260504173018 | 20 | 239 | 4.8 | 14.5 | 0.00 | 0.00 | 0.00 | 43 | 1012.7 |
| 20260504172541 | 20 | 207 | 6.4 | 14.5 | 0.00 | 0.00 | 0.00 | 42 | 1012.7 |
| 20260504172104 | 20 | 193 | 6.4 | 12.9 | 0.00 | 0.00 | 0.00 | 45 | 1012.7 |
| 20260504171530 | 20 | 248 | 4.8 | 19.3 | 0.00 | 0.00 | 0.00 | 44 | 1012.9 |
| 20260504171059 | 20 | 251 | 6.4 | 19.3 | 0.00 | 0.00 | 0.00 | 42 | 1012.9 |
| 20260504170510 | 20 | 217 | 4.8 | 12.9 | 0.00 | 0.00 | 0.00 | 42 | 1013.1 |
| 20260504151045 | 17 | 225 | 3.2 | 9.7 | 0.00 | 0.00 | 0.00 | 52 | 1014.5 |
| 20260504150532 | 17 | 197 | 4.8 | 16.1 | 0.00 | 0.00 | 0.00 | 54 | 1014.4 |
| 20260504141004 | 15 | 198 | 8.0 | 12.9 | 0.00 | 0.00 | 0.00 | 61 | 1014.7 |
| 20260504140551 | 15 | 194 | 3.2 | 12.9 | 0.00 | 0.00 | 0.00 | 62 | 1014.6 |
| 20260504130557 | 12 | 250 | 3.2 | 8.0 | 0.00 | 0.00 | 0.00 | 70 | 1015.1 |
| 20260504110528 | 2 | 360 | 0.0 | 0.0 | 0.00 | 0.00 | 0.00 | 95 | 1015.6 |
| 20260504110105 | 2 | 360 | 0.0 | 0.0 | 0.00 | 0.00 | 0.00 | 96 | 1015.6 |
| 20260504100533 | 1 | 286 | 0.0 | 0.0 | 0.00 | 0.00 | 0.00 | 94 | 1015.4 |
| 20260504081529 | 2 | 324 | 0.0 | 0.0 | 0.00 | 0.00 | 0.00 | 89 | 1015.4 |
| 20260504081048 | 2 | 324 | 0.0 | 0.0 | 0.00 | 0.00 | 0.00 | 89 | 1015.3 |
| 20260504080519 | 2 | 324 | 0.0 | 0.0 | 0.00 | 0.00 | 0.00 | 88 | 1015.3 |
| 20260504050506 | 3 | 290 | 0.0 | 0.0 | 0.00 | 0.00 | 0.00 | 88 | 1015.3 |
| 20260504050005 | 3 | 290 | 0.0 | 0.0 | 0.00 | 0.00 | 0.00 | 87 | 1015.3 |
| 20260504045557 | 3 | 290 | 0.0 | 0.0 | 0.00 | 0.00 | 0.00 | 87 | 1015.3 |
| 20260504045051 | 3 | 290 | 0.0 | 0.0 | 0.00 | 0.00 | 0.00 | 87 | 1015.3 |
| 20260504044505 | 4 | 290 | 0.0 | 0.0 | 0.00 | 0.00 | 0.00 | 87 | 1015.3 |
| 20260504044051 | 4 | 290 | 0.0 | 0.0 | 0.00 | 0.00 | 0.00 | 86 | 1015.3 |
| 20260504043546 | 4 | 290 | 0.0 | 0.0 | 0.00 | 0.00 | 0.00 | 86 | 1015.3 |
| 20260504043030 | 4 | 289 | 0.0 | 0.0 | 0.00 | 0.00 | 0.00 | 86 | 1015.2 |
| 20260504042506 | 4 | 288 | 0.0 | 0.0 | 0.00 | 0.00 | 0.00 | 86 | 1015.0 |
| 20260504042001 | 4 | 288 | 0.0 | 0.0 | 0.00 | 0.00 | 0.00 | 87 | 1015.1 |
| 20260504041536 | 4 | 288 | 0.0 | 1.6 | 0.00 | 0.00 | 0.00 | 86 | 1015.0 |
| 20260504041017 | 5 | 360 | 0.0 | 1.6 | 0.00 | 0.00 | 0.00 | 85 | 1014.9 |
| 20260504040600 | 5 | 360 | 0.0 | 0.0 | 0.00 | 0.00 | 0.00 | 84 | 1014.9 |
| 20260504040020 | 5 | 289 | 0.0 | 0.0 | 0.00 | 0.00 | 0.00 | 83 | 1014.8 |
| 20260504035541 | 5 | 360 | 0.0 | 1.6 | 0.00 | 0.00 | 0.00 | 83 | 1014.8 |
| 20260504035103 | 5 | 360 | 0.0 | 1.6 | 0.00 | 0.00 | 0.00 | 82 | 1014.8 |
| 20260504034510 | 5 | 360 | 0.0 | 1.6 | 0.00 | 0.00 | 0.00 | 82 | 1014.7 |
| 20260504034033 | 5 | 360 | 0.0 | 0.0 | 0.00 | 0.00 | 0.00 | 81 | 1014.6 |
| 20260504033608 | 5 | 360 | 0.0 | 0.0 | 0.00 | 0.00 | 0.00 | 81 | 1014.6 |
| 20260504033045 | 5 | 360 | 0.0 | 1.6 | 0.00 | 0.00 | 0.00 | 81 | 1014.7 |
| 20260504032603 | 5 | 360 | 0.0 | 1.6 | 0.00 | 0.00 | 0.00 | 80 | 1014.5 |
| 20260504032019 | 5 | 288 | 0.0 | 1.6 | 0.00 | 0.00 | 0.00 | 81 | 1014.6 |
| 20260504031624 | 5 | 288 | 0.0 | 1.6 | 0.00 | 0.00 | 0.00 | 79 | 1014.5 |
| 20260504031021 | 5 | 360 | 0.0 | 1.6 | 0.00 | 0.00 | 0.00 | 79 | 1014.5 |
| 20260504030550 | 5 | 360 | 0.0 | 3.2 | 0.00 | 0.00 | 0.00 | 79 | 1014.5 |
| 20260504030036 | 5 | 360 | 0.0 | 3.2 | 0.00 | 0.00 | 0.00 | 81 | 1014.5 |
| 20260504025605 | 5 | 360 | 0.0 | 0.0 | 0.00 | 0.00 | 0.00 | 81 | 1014.4 |
| 20260504025015 | 5 | 360 | 0.0 | 0.0 | 0.00 | 0.00 | 0.00 | 81 | 1014.4 |
| 20260504024540 | 5 | 360 | 0.0 | 0.0 | 0.00 | 0.00 | 0.00 | 81 | 1014.4 |
| 20260504024054 | 6 | 360 | 0.0 | 1.6 | 0.00 | 0.00 | 0.00 | 81 | 1014.4 |
| 20260504023504 | 6 | 360 | 0.0 | 1.6 | 0.00 | 0.00 | 0.00 | 81 | 1014.4 |
| 20260504023025 | 6 | 360 | 0.0 | 0.0 | 0.00 | 0.00 | 0.00 | 80 | 1014.4 |
| 20260504022548 | 6 | 360 | 0.0 | 0.0 | 0.00 | 0.00 | 0.00 | 80 | 1014.5 |
| 20260504022108 | 6 | 360 | 0.0 | 1.6 | 0.00 | 0.00 | 0.00 | 79 | 1014.4 |
| 20260504021517 | 6 | 260 | 0.0 | 1.6 | 0.00 | 0.00 | 0.00 | 77 | 1014.4 |
| 20260504021104 | 6 | 360 | 0.0 | 0.0 | 0.00 | 0.00 | 0.00 | 76 | 1014.4 |
| 20260504020518 | 6 | 360 | 0.0 | 0.0 | 0.00 | 0.00 | 0.00 | 76 | 1014.4 |
| 20260504020108 | 6 | 360 | 0.0 | 0.0 | 0.00 | 0.00 | 0.00 | 77 | 1014.4 |
| 20260504015519 | 6 | 360 | 0.0 | 0.0 | 0.00 | 0.00 | 0.00 | 74 | 1014.3 |
| 20260504015041 | 6 | 360 | 0.0 | 0.0 | 0.00 | 0.00 | 0.00 | 75 | 1014.3 |
| 20260504014604 | 6 | 360 | 0.0 | 0.0 | 0.00 | 0.00 | 0.00 | 75 | 1014.3 |
| 20260504014024 | 7 | 360 | 0.0 | 0.0 | 0.00 | 0.00 | 0.00 | 74 | 1014.3 |
| 20260504013554 | 7 | 360 | 0.0 | 0.0 | 0.00 | 0.00 | 0.00 | 74 | 1014.2 |
| 20260504013026 | 7 | 360 | 0.0 | 0.0 | 0.00 | 0.00 | 0.00 | 72 | 1014.3 |
| 20260504012558 | 7 | 259 | 0.0 | 1.6 | 0.00 | 0.00 | 0.00 | 71 | 1014.3 |
| 20260504012019 | 7 | 257 | 0.0 | 1.6 | 0.00 | 0.00 | 0.00 | 71 | 1014.3 |
| 20260504011604 | 8 | 360 | 0.0 | 1.6 | 0.00 | 0.00 | 0.00 | 71 | 1014.3 |
| 20260504011016 | 8 | 360 | 0.0 | 0.0 | 0.00 | 0.00 | 0.00 | 69 | 1014.2 |
| 20260504010547 | 8 | 360 | 0.0 | 0.0 | 0.00 | 0.00 | 0.00 | 68 | 1014.1 |
| 20260504010009 | 8 | 360 | 0.0 | 0.0 | 0.00 | 0.00 | 0.00 | 67 | 1014.0 |
| 20260504005532 | 8 | 360 | 0.0 | 0.0 | 0.00 | 0.00 | 0.00 | 66 | 1014.0 |
| 20260504005105 | 9 | 360 | 0.0 | 0.0 | 0.00 | 0.00 | 0.00 | 65 | 1013.9 |
| 20260504004537 | 9 | 360 | 0.0 | 0.0 | 0.00 | 0.00 | 0.00 | 62 | 1013.9 |
| 20260504004010 | 10 | 259 | 0.0 | 0.0 | 0.00 | 0.00 | 0.00 | 59 | 1013.9 |
| 20260504003556 | 10 | 258 | 0.0 | 0.0 | 0.00 | 0.00 | 0.00 | 59 | 1013.8 |
| 20260504003015 | 10 | 360 | 0.0 | 0.0 | 0.00 | 0.00 | 0.00 | 58 | 1013.6 |
| 20260504002536 | 10 | 259 | 0.0 | 0.0 | 0.00 | 0.00 | 0.00 | 57 | 1013.6 |
| 20260504002015 | 10 | 259 | 0.0 | 0.0 | 0.00 | 0.00 | 0.00 | 57 | 1013.5 |
| 20260504001549 | 11 | 260 | 0.0 | 0.0 | 0.00 | 0.00 | 0.00 | 55 | 1013.4 |
| 20260504001108 | 11 | 260 | 0.0 | 0.0 | 0.00 | 0.00 | 0.00 | 53 | 1013.4 |
| 20260504000516 | 11 | 259 | 0.0 | 1.6 | 0.00 | 0.00 | 0.00 | 51 | 1013.3 |
| 20260504000106 | 11 | 360 | 0.0 | 1.6 | 0.00 | 0.00 | 0.00 | 50 | 1013.2 |
| 20260503235534 | 12 | 360 | 0.0 | 1.6 | 0.00 | 0.00 | 0.00 | 49 | 1013.1 |
| 20260503235008 | 12 | 259 | 0.0 | 1.6 | 0.00 | 0.00 | 0.00 | 48 | 1013.1 |
| 20260503234604 | 12 | 360 | 0.0 | 1.6 | 0.00 | 0.00 | 0.00 | 47 | 1013.1 |
| 20260503234031 | 12 | 360 | 0.0 | 3.2 | 0.00 | 0.00 | 0.00 | 48 | 1013.1 |
| 20260503233500 | 12 | 360 | 0.0 | 3.2 | 0.00 | 0.00 | 0.00 | 46 | 1013.0 |
| 20260503233045 | 12 | 360 | 0.0 | 3.2 | 0.00 | 0.00 | 0.00 | 46 | 1013.0 |
| 20260503232554 | 13 | 360 | 0.0 | 3.2 | 0.00 | 0.00 | 0.00 | 46 | 1013.0 |
| 20260503232024 | 13 | 248 | 1.6 | 3.2 | 0.00 | 0.00 | 0.00 | 45 | 1013.1 |
| 20260503231608 | 13 | 250 | 1.6 | 4.8 | 0.00 | 0.00 | 0.00 | 44 | 1013.1 |
| 20260503231018 | 13 | 255 | 1.6 | 6.4 | 0.00 | 0.00 | 0.00 | 42 | 1013.1 |
| 20260503230546 | 13 | 251 | 1.6 | 6.4 | 0.00 | 0.00 | 0.00 | 42 | 1013.0 |
| 20260503230012 | 13 | 216 | 1.6 | 11.3 | 0.00 | 0.00 | 0.00 | 41 | 1012.9 |
| 20260503225601 | 13 | 128 | 1.6 | 11.3 | 0.00 | 0.00 | 0.00 | 41 | 1013.0 |
| 20260503225028 | 13 | 221 | 3.2 | 9.7 | 0.00 | 0.00 | 0.00 | 41 | 1012.9 |
| 20260503224510 | 14 | 250 | 1.6 | 6.4 | 0.00 | 0.00 | 0.00 | 42 | 1013.0 |
| 20260503224030 | 14 | 262 | 0.0 | 8.0 | 0.00 | 0.00 | 0.00 | 41 | 1013.0 |
| 20260503223550 | 14 | 195 | 3.2 | 11.3 | 0.00 | 0.00 | 0.00 | 39 | 1013.0 |
| 20260503223001 | 14 | 223 | 3.2 | 11.3 | 0.00 | 0.00 | 0.00 | 39 | 1012.9 |
| 20260503222545 | 13 | 210 | 3.2 | 11.3 | 0.00 | 0.00 | 0.00 | 40 | 1012.9 |
| 20260503222013 | 13 | 194 | 0.0 | 11.3 | 0.00 | 0.00 | 0.00 | 40 | 1012.8 |
| 20260503221647 | 13 | 105 | 1.6 | 20.9 | 0.00 | 0.00 | 0.00 | 41 | 1012.8 |
| 20260503221005 | 13 | 186 | 3.2 | 14.5 | 0.00 | 0.00 | 0.00 | 40 | 1012.7 |
| 20260503220526 | 14 | 249 | 1.6 | 14.5 | 0.00 | 0.00 | 0.00 | 42 | 1012.8 |
| 20260503220004 | 14 | 259 | 1.6 | 8.0 | 0.00 | 0.00 | 0.00 | 39 | 1012.8 |
| 20260503215651 | 14 | 277 | 0.0 | 8.0 | 0.00 | 0.00 | 0.00 | 40 | 1012.8 |
| 20260503215101 | 14 | 242 | 4.8 | 12.9 | 0.00 | 0.00 | 0.00 | 39 | 1012.8 |
| 20260503214551 | 14 | 153 | 4.8 | 12.9 | 0.00 | 0.00 | 0.00 | 38 | 1012.7 |
| 20260503214010 | 14 | 243 | 1.6 | 16.1 | 0.00 | 0.00 | 0.00 | 39 | 1012.7 |
| 20260503213530 | 14 | 202 | 3.2 | 9.7 | 0.00 | 0.00 | 0.00 | 39 | 1012.7 |
| 20260503213004 | 14 | 242 | 3.2 | 14.5 | 0.00 | 0.00 | 0.00 | 37 | 1012.7 |
| 20260503212539 | 14 | 306 | 0.0 | 6.4 | 0.00 | 0.00 | 0.00 | 39 | 1012.6 |
| 20260503212108 | 14 | 159 | 1.6 | 14.5 | 0.00 | 0.00 | 0.00 | 39 | 1012.6 |
| 20260503211522 | 14 | 241 | 4.8 | 14.5 | 0.00 | 0.00 | 0.00 | 38 | 1012.6 |
| 20260503211045 | 14 | 269 | 3.2 | 17.7 | 0.00 | 0.00 | 0.00 | 39 | 1012.7 |
| 20260503210523 | 14 | 281 | 3.2 | 16.1 | 0.00 | 0.00 | 0.00 | 38 | 1012.7 |
| 20260503205538 | 14 | 205 | 1.6 | 12.9 | 0.00 | 0.00 | 0.00 | 37 | 1012.7 |
| 20260503205056 | 14 | 184 | 1.6 | 9.7 | 0.00 | 0.00 | 0.00 | 39 | 1012.7 |
| 20260503204506 | 13 | 177 | 4.8 | 12.9 | 0.00 | 0.00 | 0.00 | 38 | 1012.7 |
| 20260503204049 | 13 | 217 | 4.8 | 14.5 | 0.00 | 0.00 | 0.00 | 39 | 1012.9 |
| 20260503203538 | 14 | 216 | 4.8 | 14.5 | 0.00 | 0.00 | 0.00 | 38 | 1013.0 |
| 20260503203116 | 14 | 255 | 4.8 | 14.5 | 0.00 | 0.00 | 0.00 | 38 | 1013.0 |
| 20260503202517 | 14 | 196 | 4.8 | 24.1 | 0.00 | 0.00 | 0.00 | 37 | 1012.9 |
| 20260503202148 | 14 | 220 | 6.4 | 24.1 | 0.00 | 0.00 | 0.00 | 37 | 1012.8 |
| 20260503201558 | 13 | 312 | 4.8 | 12.9 | 0.00 | 0.00 | 0.00 | 39 | 1012.9 |
| 20260503201018 | 13 | 212 | 3.2 | 20.9 | 0.00 | 0.00 | 0.00 | 39 | 1013.0 |
| 20260503200606 | 13 | 179 | 3.2 | 20.9 | 0.00 | 0.00 | 0.00 | 39 | 1013.2 |
| 20260503200024 | 13 | 286 | 6.4 | 19.3 | 0.00 | 0.00 | 0.00 | 38 | 1013.1 |
| 20260503195600 | 14 | 338 | 6.4 | 19.3 | 0.00 | 0.00 | 0.00 | 38 | 1013.2 |
| 20260503195009 | 13 | 319 | 4.8 | 25.7 | 0.00 | 0.00 | 0.00 | 38 | 1013.2 |
| 20260503194530 | 13 | 277 | 3.2 | 19.3 | 0.00 | 0.00 | 0.00 | 40 | 1013.3 |
| 20260503194004 | 14 | 203 | 8.0 | 19.3 | 0.00 | 0.00 | 0.00 | 36 | 1013.4 |
| 20260503193548 | 14 | 281 | 6.4 | 20.9 | 0.00 | 0.00 | 0.00 | 39 | 1013.5 |
| 20260503193108 | 13 | 327 | 3.2 | 24.1 | 0.00 | 0.00 | 0.00 | 41 | 1013.5 |
| 20260503192521 | 13 | 5 | 3.2 | 14.5 | 0.00 | 0.00 | 0.00 | 43 | 1013.6 |
| 20260503192038 | 13 | 194 | 1.6 | 6.4 | 0.00 | 0.00 | 0.00 | 44 | 1013.7 |
| 20260503191605 | 13 | 190 | 3.2 | 16.1 | 0.00 | 0.00 | 0.00 | 40 | 1013.7 |
| 20260503191011 | 13 | 327 | 6.4 | 20.9 | 0.00 | 0.00 | 0.00 | 38 | 1013.9 |
| 20260503190528 | 13 | 249 | 6.4 | 20.9 | 0.00 | 0.00 | 0.00 | 39 | 1013.9 |
| 20260503190048 | 13 | 192 | 4.8 | 19.3 | 0.00 | 0.00 | 0.00 | 43 | 1013.8 |
| 20260503185607 | 13 | 302 | 4.8 | 19.3 | 0.00 | 0.00 | 0.00 | 45 | 1013.8 |
| 20260503185037 | 13 | 230 | 4.8 | 14.5 | 0.00 | 0.00 | 0.00 | 41 | 1013.9 |
| 20260503184641 | 13 | 246 | 4.8 | 17.7 | 0.00 | 0.00 | 0.00 | 43 | 1013.9 |
| 20260503184015 | 13 | 234 | 6.4 | 19.3 | 0.00 | 0.00 | 0.00 | 41 | 1014.0 |
| 20260503183554 | 13 | 248 | 4.8 | 19.3 | 0.00 | 0.00 | 0.00 | 42 | 1014.0 |
| 20260503183038 | 13 | 241 | 4.8 | 17.7 | 0.00 | 0.00 | 0.00 | 42 | 1014.2 |
| 20260503182548 | 13 | 238 | 4.8 | 17.7 | 0.00 | 0.00 | 0.00 | 43 | 1014.0 |
| 20260503182110 | 13 | 238 | 4.8 | 22.5 | 0.00 | 0.00 | 0.00 | 43 | 1013.9 |
| 20260503181533 | 13 | 271 | 11.3 | 20.9 | 0.00 | 0.00 | 0.00 | 43 | 1014.0 |
| 20260503181016 | 13 | 265 | 6.4 | 16.1 | 0.00 | 0.00 | 0.00 | 44 | 1014.0 |
| 20260503180507 | 13 | 246 | 8.0 | 16.1 | 0.00 | 0.00 | 0.00 | 43 | 1014.0 |
| 20260503180054 | 12 | 198 | 3.2 | 12.9 | 0.00 | 0.00 | 0.00 | 47 | 1014.0 |